• In Deutschland
  • Länderverzeichnis
  • Für 7 Tage
  • Wassertemperatur
  • Satellitenkarten
  • Wetterkarte
  • Widgets
  • user-avatar
    Anmelden

    Stündliche Wetter Abreu e Lima

    Heute, 21 November, Dienstag

    Zeit Temperatur Niederschläge Wind Luftdruck Luftfeuchtigkeit
    00:00 +27°C° 0 mm 3 m/S 757 mmHg 77%
    01:00 +26°C° 0 mm 2 m/S 757 mmHg 79%
    02:00 +26°C° 0,1 mm 2 m/S 757 mmHg 81%
    03:00 +26°C° 0,1 mm 3 m/S 757 mmHg 82%
    04:00 +26°C° 0 mm 3 m/S 756 mmHg 85%
    05:00 +26°C° 0,1 mm 3 m/S 756 mmHg 83%
    06:00 +27°C° 0,1 mm 3 m/S 757 mmHg 81%
    07:00 +27°C° 0,1 mm 4 m/S 757 mmHg 80%
    08:00 +29°C° 0,1 mm 4 m/S 757 mmHg 73%
    09:00 +30°C° 0,1 mm 4 m/S 757 mmHg 66%
    10:00 +32°C° 0,1 mm 5 m/S 758 mmHg 59%
    11:00 +33°C° 0 mm 5 m/S 757 mmHg 57%
    12:00 +34°C° 0 mm 5 m/S 757 mmHg 54%
    13:00 +34°C° 0 mm 5 m/S 757 mmHg 52%
    14:00 +34°C° 0 mm 5 m/S 756 mmHg 54%
    15:00 +33°C° 0 mm 5 m/S 756 mmHg 55%
    16:00 +33°C° 0 mm 5 m/S 756 mmHg 57%
    17:00 +30°C° 0 mm 5 m/S 756 mmHg 63%
    18:00 +29°C° 0 mm 4 m/S 756 mmHg 69%
    19:00 +28°C° 0 mm 4 m/S 756 mmHg 75%
    20:00 +28°C° 0 mm 4 m/S 756 mmHg 77%
    21:00 +27°C° 0 mm 4 m/S 757 mmHg 79%
    22:00 +27°C° 0 mm 3 m/S 757 mmHg 81%
    23:00 +27°C° 0,1 mm 3 m/S 757 mmHg 82%

    Morgen, 22 November, Mittwoch

    Zeit Temperatur Niederschläge Wind Luftdruck Luftfeuchtigkeit
    00:00 +27°C° 0,1 mm 3 m/S 757 mmHg 83%
    01:00 +27°C° 0,1 mm 3 m/S 756 mmHg 83%
    02:00 +26°C° 0,1 mm 3 m/S 756 mmHg 84%
    03:00 +26°C° 0,1 mm 3 m/S 756 mmHg 84%
    04:00 +26°C° 0,1 mm 3 m/S 756 mmHg 84%
    05:00 +26°C° 0,1 mm 3 m/S 756 mmHg 82%
    06:00 +27°C° 0,1 mm 4 m/S 756 mmHg 79%
    07:00 +27°C° 0,1 mm 4 m/S 757 mmHg 77%
    08:00 +29°C° 0,1 mm 4 m/S 757 mmHg 69%
    09:00 +30°C° 0,1 mm 4 m/S 757 mmHg 62%
    10:00 +33°C° 0,1 mm 5 m/S 758 mmHg 55%
    11:00 +33°C° 0 mm 5 m/S 757 mmHg 53%
    12:00 +34°C° 0 mm 5 m/S 757 mmHg 51%
    13:00 +34°C° 0 mm 5 m/S 757 mmHg 50%
    14:00 +34°C° 0 mm 5 m/S 756 mmHg 52%
    15:00 +33°C° 0 mm 5 m/S 756 mmHg 53%
    16:00 +33°C° 0 mm 5 m/S 755 mmHg 55%
    17:00 +32°C° 0 mm 4 m/S 755 mmHg 61%
    18:00 +29°C° 0 mm 4 m/S 756 mmHg 67%
    19:00 +28°C° 0 mm 4 m/S 756 mmHg 73%
    20:00 +28°C° 0,1 mm 4 m/S 756 mmHg 76%
    21:00 +28°C° 0,1 mm 4 m/S 757 mmHg 79%
    22:00 +27°C° 0,1 mm 4 m/S 757 mmHg 82%
    23:00 +27°C° 0,1 mm 3 m/S 757 mmHg 83%

    übermorgen, 23 November, Donnerstag

    Zeit Temperatur Niederschläge Wind Luftdruck Luftfeuchtigkeit
    00:00 +27°C° 0,1 mm 3 m/S 757 mmHg 84%
    01:00 +27°C° 0,1 mm 3 m/S 756 mmHg 85%
    02:00 +26°C° 0,1 mm 3 m/S 756 mmHg 86%
    03:00 +26°C° 0,1 mm 2 m/S 756 mmHg 86%
    04:00 +26°C° 0,1 mm 2 m/S 756 mmHg 87%
    05:00 +26°C° 0,1 mm 2 m/S 756 mmHg 85%
    06:00 +27°C° 0,1 mm 3 m/S 757 mmHg 82%
    07:00 +27°C° 0,1 mm 3 m/S 757 mmHg 80%
    08:00 +29°C° 0,1 mm 3 m/S 758 mmHg 73%
    09:00 +30°C° 0,1 mm 4 m/S 758 mmHg 66%
    10:00 +33°C° 0,1 mm 4 m/S 759 mmHg 59%
    11:00 +33°C° 0 mm 4 m/S 758 mmHg 56%
    12:00 +34°C° 0 mm 5 m/S 758 mmHg 54%
    13:00 +34°C° 0 mm 5 m/S 757 mmHg 52%
    14:00 +34°C° 0 mm 5 m/S 757 mmHg 54%
    15:00 +33°C° 0 mm 5 m/S 756 mmHg 56%
    16:00 +33°C° 0 mm 5 m/S 755 mmHg 58%
    17:00 +30°C° 0 mm 5 m/S 756 mmHg 64%
    18:00 +29°C° 0 mm 4 m/S 756 mmHg 69%
    19:00 +28°C° 0 mm 4 m/S 756 mmHg 74%
    20:00 +28°C° 0 mm 3 m/S 757 mmHg 77%
    21:00 +27°C° 0 mm 3 m/S 757 mmHg 79%
    22:00 +27°C° 0 mm 3 m/S 758 mmHg 82%
    23:00 +27°C° 0 mm 3 m/S 757 mmHg 83%

    24 November, Freitag

    Zeit Temperatur Niederschläge Wind Luftdruck Luftfeuchtigkeit
    00:00 +27°C° 0 mm 2 m/S 757 mmHg 84%
    01:00 +26°C° 0 mm 2 m/S 757 mmHg 86%
    02:00 +26°C° 0 mm 2 m/S 757 mmHg 86%
    03:00 +26°C° 0 mm 2 m/S 756 mmHg 86%
    04:00 +26°C° 0 mm 2 m/S 756 mmHg 87%
    05:00 +26°C° 0 mm 3 m/S 757 mmHg 84%
    06:00 +27°C° 0 mm 3 m/S 757 mmHg 82%
    07:00 +27°C° 0 mm 3 m/S 758 mmHg 79%
    08:00 +29°C° 0,1 mm 4 m/S 758 mmHg 73%
    09:00 +30°C° 0,1 mm 4 m/S 758 mmHg 66%
    10:00 +32°C° 0,1 mm 4 m/S 759 mmHg 59%
    11:00 +33°C° 0 mm 4 m/S 758 mmHg 58%
    12:00 +33°C° 0 mm 5 m/S 758 mmHg 57%
    13:00 +33°C° 0 mm 5 m/S 758 mmHg 56%
    14:00 +33°C° 0 mm 5 m/S 757 mmHg 56%
    15:00 +33°C° 0 mm 5 m/S 757 mmHg 56%
    16:00 +33°C° 0 mm 5 m/S 756 mmHg 56%
    17:00 +32°C° 0 mm 4 m/S 757 mmHg 62%
    18:00 +29°C° 0 mm 4 m/S 757 mmHg 67%
    19:00 +28°C° 0 mm 4 m/S 757 mmHg 72%
    20:00 +28°C° 0 mm 4 m/S 758 mmHg 74%
    21:00 +28°C° 0 mm 4 m/S 758 mmHg 77%
    22:00 +27°C° 0 mm 4 m/S 758 mmHg 79%
    23:00 +27°C° 0 mm 3 m/S 758 mmHg 80%

    25 November, Samstag

    Zeit Temperatur Niederschläge Wind Luftdruck Luftfeuchtigkeit
    00:00 +27°C° 0 mm 3 m/S 758 mmHg 80%
    01:00 +27°C° 0 mm 3 m/S 758 mmHg 81%
    02:00 +27°C° 0,1 mm 3 m/S 757 mmHg 82%
    03:00 +26°C° 0,1 mm 3 m/S 757 mmHg 82%
    04:00 +26°C° 0,1 mm 4 m/S 757 mmHg 83%
    05:00 +27°C° 0,1 mm 4 m/S 757 mmHg 81%
    06:00 +27°C° 0,1 mm 4 m/S 758 mmHg 80%
    07:00 +27°C° 0,1 mm 4 m/S 758 mmHg 78%
    08:00 +29°C° 0,1 mm 5 m/S 759 mmHg 72%
    09:00 +30°C° 0,1 mm 5 m/S 759 mmHg 65%
    10:00 +32°C° 0,1 mm 5 m/S 759 mmHg 59%
    11:00 +33°C° 0 mm 5 m/S 759 mmHg 56%
    12:00 +34°C° 0 mm 5 m/S 758 mmHg 54%
    13:00 +34°C° 0 mm 5 m/S 758 mmHg 51%
    14:00 +34°C° 0 mm 5 m/S 758 mmHg 53%
    15:00 +33°C° 0 mm 5 m/S 757 mmHg 55%
    16:00 +33°C° 0 mm 5 m/S 757 mmHg 56%
    17:00 +30°C° 0 mm 5 m/S 757 mmHg 62%
    18:00 +29°C° 0 mm 5 m/S 757 mmHg 68%
    19:00 +28°C° 0 mm 4 m/S 758 mmHg 74%
    20:00 +28°C° 0 mm 4 m/S 758 mmHg 76%
    21:00 +27°C° 0 mm 4 m/S 758 mmHg 78%
    22:00 +27°C° 0 mm 4 m/S 758 mmHg 80%
    23:00 +27°C° 0,1 mm 4 m/S 758 mmHg 81%

    26 November, Sonntag

    Zeit Temperatur Niederschläge Wind Luftdruck Luftfeuchtigkeit
    00:00 +27°C° 0,1 mm 4 m/S 758 mmHg 82%
    01:00 +26°C° 0,1 mm 4 m/S 757 mmHg 82%
    02:00 +26°C° 0,1 mm 4 m/S 757 mmHg 83%
    03:00 +26°C° 0,1 mm 4 m/S 757 mmHg 83%
    04:00 +26°C° 0,1 mm 4 m/S 757 mmHg 84%
    05:00 +26°C° 0 mm 4 m/S 757 mmHg 81%
    06:00 +26°C° 0 mm 4 m/S 758 mmHg 79%
    07:00 +27°C° 0 mm 4 m/S 758 mmHg 76%
    08:00 +28°C° 0 mm 4 m/S 758 mmHg 68%
    09:00 +30°C° 0 mm 4 m/S 759 mmHg 59%
    10:00 +33°C° 0 mm 5 m/S 759 mmHg 51%
    11:00 +33°C° 0 mm 5 m/S 758 mmHg 50%
    12:00 +33°C° 0 mm 5 m/S 758 mmHg 49%
    13:00 +34°C° 0 mm 5 m/S 758 mmHg 49%
    14:00 +33°C° 0 mm 5 m/S 757 mmHg 50%
    15:00 +33°C° 0 mm 5 m/S 757 mmHg 52%
    16:00 +32°C° 0 mm 6 m/S 756 mmHg 54%
    17:00 +30°C° 0 mm 5 m/S 757 mmHg 59%
    18:00 +29°C° 0 mm 5 m/S 757 mmHg 64%
    19:00 +28°C° 0 mm 4 m/S 757 mmHg 69%
    20:00 +28°C° 0 mm 4 m/S 758 mmHg 71%
    21:00 +27°C° 0 mm 4 m/S 758 mmHg 73%
    22:00 +27°C° 0 mm 4 m/S 758 mmHg 75%
    23:00 +27°C° 0 mm 3 m/S 758 mmHg 77%
    Mehr zeigen